Tracking 27420 objects as of 28-May-2023
HD Live streaming from Space Station
objects crossing your sky now

SL-8 R/B

Track SL-8 R/B now!
10-day predictions


NORAD ID: 16682
Int'l Code: 1986-030B
Perigee: 767.5 km
Apogee: 788.4 km
Inclination: 74.0 °
Period: 100.3 minutes
Semi major axis: 7148 km
RCS: 4.4473 m2 (large)
Launch date: April 17, 1986
Source: Commonwealth of Independent States (former USSR) (CIS)
Launch site: PLESETSK MISSILE AND SPACE COMPLEX (PKMTR)

Note: This is a ROCKET BODY
Your satellite tracking list
Your tracking list is empty




NASA's NSSDC Master Catalog

Two Line Element Set (TLE):
1 16682U 86030B   23148.46372568  .00000141  00000-0  57383-4 0  9995
2 16682  74.0249 198.2504 0014621   4.4596  98.0018 14.36273955942839
Source of the keplerian elements: AFSPC